Total_Precipitation_Accumulation
0.00 0.02 0.10 0.22 0.24 0.06 0.01 0.02 0.02 0.06 0.26 0.21 0.29 0.26 0.27 0.24 0.13 0.02 0.02 0.01 0.00 0.00
0.01 0.02 0.03 0.19 0.26 0.06 0.04 0.01 0.08 0.21 0.33 0.31 0.23 0.25 0.24 0.14 0.12 0.14 0.09 0.03 0.01 0.00
0.04 0.02 0.01 0.08 0.05 0.07 0.05 0.10 0.23 0.37 0.29 0.31 0.25 0.33 0.35 0.15 0.17 0.22 0.08 0.01 0.05 0.08
0.01 0.01 0.00 0.00 0.03 0.03 0.03 0.10 0.14 0.35 0.38 0.39 0.45 0.46 0.61 0.42 0.47 0.41 0.29 0.13 0.22 0.20
0.01 0.00 0.00 0.00 0.01 0.02 0.02 0.04 0.08 0.14 0.25 0.36 0.41 0.55 0.57 0.40 0.32 0.29 0.21 0.17 0.32 0.14
0.11 0.05 0.02 0.00 0.00 0.01 0.01 0.02 0.07 0.05 0.02 0.03 0.08 0.17 0.32 0.26 0.11 0.15 0.18 0.16 0.21 0.19
0.27 0.21 0.05 0.03 0.03 0.02 0.01 0.00 0.00 0.00 0.00 0.02 0.09 0.08 0.09 0.17 0.14 0.06 0.02 0.05 0.15 0.20
0.23 0.22 0.15 0.07 0.05 0.09 0.04 0.01 0.00 0.00 0.00 0.01 0.03 0.02 0.02 0.06 0.06 0.07 0.04 0.05 0.07 0.05
0.17 0.08 0.07 0.07 0.08 0.02 0.01 0.00 0.00 0.00 0.00 0.00 0.00 0.00 0.03 0.10 0.17 0.22 0.24 0.17 0.12 0.04
0.14 0.15 0.09 0.13 0.08 0.03 0.02 0.03 0.01 0.00 0.00 0.00 0.00 0.00 0.00 0.02 0.04 0.08 0.09 0.11 0.07 0.03
0.18 0.13 0.15 0.16 0.09 0.06 0.04 0.02 0.07 0.03 0.01 0.01 0.00 0.00 0.00 0.03 0.01 0.00 0.01 0.02 0.03 0.02
0.32 0.23 0.20 0.19 0.11 0.11 0.19 0.09 0.07 0.16 0.11 0.14 0.14 0.05 0.03 0.05 0.01 0.00 0.00 0.00 0.01 0.02
0.69 0.67 0.51 0.37 0.26 0.25 0.31 0.27 0.33 0.57 0.77 0.92 0.51 0.26 0.11 0.07 0.04 0.01 0.00 0.00 0.02 0.02
1.36 1.29 1.00 0.94 0.81 0.88 0.92 0.97 1.09 1.42 1.27 1.04 1.01 0.97 0.78 0.61 0.32 0.14 0.12 0.09 0.05 0.02